Location: Bluff Heights
(33.7692°N, 118.1592°W)
Time: 09:32:44
(UTC+00:00)

ATLAS CENTAUR R/B - Pass Details

Date: 29 October 2020
Orbit: 478 x 667 km, 64.7° (Epoch: 22 November)

Event Time Altitude Azimuth Distance (km) Brightness Sun altitude
Rises 12:38:47 0° 196° (SSW) 2,710 4.7 -19.4°
Reaches altitude 10° 12:41:05 10° 190° (S) 1,788 3.9 -18.9°
Maximum altitude 12:44:56 48° 116° (ESE) 683 2.2 -18.1°
Drops below altitude 10° 12:48:36 10° 41° (NE) 1,708 4.3 -17.4°
Sets 12:50:45 0° 36° (NE) 2,574 5.2 -16.9°
